📊 Raw Sensor Data

Showing records 39826 to 39850 of 84,952 total

ID Distance (ft) Battery V Battery A Int Temp (°F) Int Humid (%) Ext Temp (°F) Solar V RSSI SNR Time Stamp
45139 15.2 3.89 0 71 44 74 5.10 -72 8 07/02/2025 08:15 AM
45138 15.2 3.89 0 70 43 72 5.10 -70 8 07/02/2025 08:00 AM
45137 15.2 3.89 0 69 43 73 5.10 -70 8 07/02/2025 07:45 AM
45136 15.2 4.04 17 67 43 70 4.50 -71 7 07/02/2025 07:30 AM
45135 15.1 3.89 11 66 42 70 4.50 -72 8 07/02/2025 07:15 AM
45134 15.1 3.93 8 64 42 71 4.50 -72 7 07/02/2025 07:00 AM
45133 15.1 3.93 0 62 42 69 4.50 -70 8 07/02/2025 06:45 AM
45132 15.0 3.87 0 60 42 64 4.50 -71 7 07/02/2025 06:30 AM
45131 15.0 3.85 0 58 43 63 4.50 -71 8 07/02/2025 06:15 AM
45130 14.9 3.85 -8 57 43 59 4.50 -71 7 07/02/2025 06:00 AM
45129 14.9 3.85 -10 56 44 58 4.10 -71 8 07/02/2025 05:45 AM
45128 15.0 3.91 -5 56 44 57 0.50 -70 8 07/02/2025 05:30 AM
45127 15.0 3.91 -5 57 44 57 0.00 -70 8 07/02/2025 05:15 AM
45126 15.0 3.86 -5 57 44 58 0.00 -71 8 07/02/2025 05:00 AM
45125 15.0 3.85 -5 58 44 59 0.00 -70 8 07/02/2025 04:45 AM
45124 15.0 3.85 -5 58 44 59 0.00 -71 8 07/02/2025 04:30 AM
45123 15.0 3.91 -5 58 44 59 0.00 -69 8 07/02/2025 04:15 AM
45122 15.0 3.86 -5 59 44 60 0.10 -69 8 07/02/2025 04:00 AM
45121 15.0 3.85 -5 59 44 60 0.00 -70 8 07/02/2025 03:45 AM
45120 15.0 3.85 -5 59 44 60 0.00 -70 8 07/02/2025 03:30 AM
45119 15.0 3.86 -5 59 44 60 0.00 -71 8 07/02/2025 03:15 AM
45118 15.0 3.86 -5 59 44 60 0.00 -70 8 07/02/2025 03:00 AM
45117 15.0 3.86 -5 59 44 60 0.00 -71 8 07/02/2025 02:45 AM
45116 15.0 3.87 -5 60 44 60 0.10 -72 8 07/02/2025 02:30 AM
45115 15.0 3.87 -5 60 44 60 0.00 -71 7 07/02/2025 02:15 AM